contact:dominique.lefevre@mio.osupytheas.fr, maurice.libes@osupytheas.fr, didier.mallarino@osupytheas.fr
Project:EMSO http://www.emso-fr.org/EMSO-France
Depth: 2436.0 m
Title:EMSO Ligure Ouest : Data MII capteur MICROCAT
DateTime_Computer,Latitude,Longitude,Temperature,Conductivity,Pressure,DateTime_Instrument
DateTime_Computer,Latitude,Longitude,degC,S m-1,dbar,DateTime_Instrument
2019-06-19T00:00:46Z,42.805,6.029,13.2958,4.59958,2469.853,2019-6-19T02:01:02Z
2019-06-19T00:03:48Z,42.805,6.029,13.2954,4.59962,2469.806,2019-6-19T02:04:05Z
2019-06-19T00:06:51Z,42.805,6.029,13.2952,4.59961,2469.844,2019-6-19T02:07:08Z
2019-06-19T00:09:54Z,42.805,6.029,13.2953,4.59960,2469.853,2019-6-19T02:10:11Z
2019-06-19T00:12:57Z,42.805,6.029,13.2953,4.59959,2469.83,2019-6-19T02:13:14Z
2019-06-19T00:16:00Z,42.805,6.029,13.2954,4.59961,2469.853,2019-6-19T02:16:17Z
2019-06-19T00:19:03Z,42.805,6.029,13.2954,4.59961,2469.867,2019-6-19T02:19:20Z
2019-06-19T00:22:06Z,42.805,6.029,13.2956,4.59960,2469.844,2019-6-19T02:22:23Z
2019-06-19T00:25:09Z,42.805,6.029,13.2957,4.59958,2469.821,2019-6-19T02:25:25Z
2019-06-19T00:28:12Z,42.805,6.029,13.2951,4.59960,2469.867,2019-6-19T02:28:28Z
2019-06-19T00:31:15Z,42.805,6.029,13.2954,4.59960,2469.821,2019-6-19T02:31:31Z
2019-06-19T00:34:18Z,42.805,6.029,13.2955,4.59961,2469.821,2019-6-19T02:34:34Z
2019-06-19T00:37:21Z,42.805,6.029,13.2954,4.59961,2469.821,2019-6-19T02:37:37Z
2019-06-19T00:40:24Z,42.805,6.029,13.2958,4.59960,2469.844,2019-6-19T02:40:40Z
2019-06-19T00:43:27Z,42.805,6.029,13.2958,4.59961,2469.83,2019-6-19T02:43:43Z
2019-06-19T00:46:30Z,42.805,6.029,13.2959,4.59961,2469.806,2019-6-19T02:46:46Z
2019-06-19T00:49:33Z,42.805,6.029,13.2958,4.59960,2469.844,2019-6-19T02:49:49Z
2019-06-19T00:52:36Z,42.805,6.029,13.2952,4.59961,2469.821,2019-6-19T02:52:52Z
2019-06-19T00:55:39Z,42.805,6.029,13.2959,4.59961,2469.806,2019-6-19T02:55:55Z
2019-06-19T00:58:42Z,42.805,6.029,13.2954,4.59958,2469.783,2019-6-19T02:58:58Z
2019-06-19T01:01:44Z,42.805,6.029,13.2956,4.59960,2469.821,2019-6-19T03:02:01Z
2019-06-19T01:04:47Z,42.805,6.029,13.2958,4.59960,2469.83,2019-6-19T03:05:04Z
2019-06-19T01:07:50Z,42.805,6.029,13.2958,4.59961,2469.83,2019-6-19T03:08:07Z
2019-06-19T01:10:53Z,42.805,6.029,13.2953,4.59961,2469.844,2019-6-19T03:11:10Z
2019-06-19T01:13:56Z,42.805,6.029,13.2957,4.59960,2469.797,2019-6-19T03:14:13Z
2019-06-19T01:16:59Z,42.805,6.029,13.2954,4.59963,2469.821,2019-6-19T03:17:16Z
2019-06-19T01:20:02Z,42.805,6.029,13.2952,4.59963,2469.806,2019-6-19T03:20:19Z
2019-06-19T01:23:05Z,42.805,6.029,13.2957,4.59961,2469.783,2019-6-19T03:23:21Z
2019-06-19T01:26:08Z,42.805,6.029,13.2956,4.59962,2469.806,2019-6-19T03:26:24Z
2019-06-19T01:29:11Z,42.805,6.029,13.2952,4.59962,2469.797,2019-6-19T03:29:27Z
2019-06-19T01:32:14Z,42.805,6.029,13.2953,4.59962,2469.806,2019-6-19T03:32:30Z
2019-06-19T01:35:17Z,42.805,6.029,13.2957,4.59963,2469.773,2019-6-19T03:35:33Z
2019-06-19T01:38:20Z,42.805,6.029,13.2957,4.59968,2469.76,2019-6-19T03:38:36Z
2019-06-19T01:41:23Z,42.805,6.029,13.2958,4.59968,2469.783,2019-6-19T03:41:39Z
2019-06-19T01:44:26Z,42.805,6.029,13.2956,4.59963,2469.783,2019-6-19T03:44:42Z
2019-06-19T01:47:29Z,42.805,6.029,13.2952,4.59964,2469.797,2019-6-19T03:47:45Z
2019-06-19T01:50:32Z,42.805,6.029,13.2958,4.59963,2469.797,2019-6-19T03:50:48Z
2019-06-19T01:53:35Z,42.805,6.029,13.2956,4.59961,2469.783,2019-6-19T03:53:51Z
2019-06-19T01:56:38Z,42.805,6.029,13.2954,4.59959,2469.773,2019-6-19T03:56:54Z
2019-06-19T01:59:41Z,42.805,6.029,13.2955,4.59961,2469.75,2019-6-19T03:59:57Z
2019-06-19T02:02:43Z,42.805,6.029,13.2957,4.59964,2469.821,2019-6-19T04:03:00Z
2019-06-19T02:05:46Z,42.805,6.029,13.2957,4.59971,2469.75,2019-6-19T04:06:03Z
2019-06-19T02:08:49Z,42.805,6.029,13.2959,4.59963,2469.773,2019-6-19T04:09:06Z
2019-06-19T02:11:52Z,42.805,6.029,13.2958,4.59964,2469.783,2019-6-19T04:12:09Z
2019-06-19T02:14:55Z,42.805,6.029,13.2953,4.59962,2469.797,2019-6-19T04:15:12Z
2019-06-19T02:17:58Z,42.805,6.029,13.2955,4.59961,2469.773,2019-6-19T04:18:15Z
2019-06-19T02:21:01Z,42.805,6.029,13.2955,4.59966,2469.75,2019-6-19T04:21:18Z
2019-06-19T02:24:04Z,42.805,6.029,13.2955,4.59964,2469.773,2019-6-19T04:24:20Z
2019-06-19T02:27:07Z,42.805,6.029,13.2963,4.59966,2469.797,2019-6-19T04:27:23Z
2019-06-19T02:30:10Z,42.805,6.029,13.2959,4.59967,2469.797,2019-6-19T04:30:26Z
2019-06-19T02:33:13Z,42.805,6.029,13.2957,4.59964,2469.797,2019-6-19T04:33:29Z
2019-06-19T02:36:16Z,42.805,6.029,13.2953,4.59970,2469.773,2019-6-19T04:36:32Z
2019-06-19T02:39:19Z,42.805,6.029,13.2958,4.59964,2469.76,2019-6-19T04:39:35Z
2019-06-19T02:42:22Z,42.805,6.029,13.2958,4.59968,2469.76,2019-6-19T04:42:38Z
2019-06-19T02:45:25Z,42.805,6.029,13.2957,4.59979,2469.783,2019-6-19T04:45:41Z
2019-06-19T02:48:28Z,42.805,6.029,13.2958,4.59981,2469.737,2019-6-19T04:48:44Z
2019-06-19T02:51:31Z,42.805,6.029,13.2960,4.59986,2469.75,2019-6-19T04:51:47Z
2019-06-19T02:54:34Z,42.805,6.029,13.2958,4.59972,2469.76,2019-6-19T04:54:50Z
2019-06-19T02:57:37Z,42.805,6.029,13.2954,4.59968,2469.797,2019-6-19T04:57:53Z
2019-06-19T03:00:39Z,42.805,6.029,13.2958,4.59968,2469.76,2019-6-19T05:00:56Z
2019-06-19T03:03:42Z,42.805,6.029,13.2957,4.59980,2469.773,2019-6-19T05:03:59Z
2019-06-19T03:06:45Z,42.805,6.029,13.2961,4.59982,2469.773,2019-6-19T05:07:02Z
2019-06-19T03:09:48Z,42.805,6.029,13.2957,4.59967,2469.773,2019-6-19T05:10:05Z
2019-06-19T03:12:51Z,42.805,6.029,13.2959,4.59966,2469.773,2019-6-19T05:13:08Z
2019-06-19T03:15:54Z,42.805,6.029,13.2956,4.59972,2469.76,2019-6-19T05:16:11Z
2019-06-19T03:18:57Z,42.805,6.029,13.2955,4.59967,2469.76,2019-6-19T05:19:14Z
2019-06-19T03:22:00Z,42.805,6.029,13.2959,4.59966,2469.773,2019-6-19T05:22:16Z
2019-06-19T03:25:03Z,42.805,6.029,13.2957,4.59983,2469.76,2019-6-19T05:25:19Z
2019-06-19T03:28:06Z,42.805,6.029,13.2962,4.59978,2469.783,2019-6-19T05:28:22Z
2019-06-19T03:31:09Z,42.805,6.029,13.2957,4.59974,2469.76,2019-6-19T05:31:25Z
2019-06-19T03:34:12Z,42.805,6.029,13.2957,4.59968,2469.76,2019-6-19T05:34:28Z
2019-06-19T03:37:15Z,42.805,6.029,13.2959,4.59990,2469.773,2019-6-19T05:37:31Z
2019-06-19T03:40:18Z,42.805,6.029,13.2963,4.59985,2469.76,2019-6-19T05:40:34Z
2019-06-19T03:43:21Z,42.805,6.029,13.2957,4.59972,2469.76,2019-6-19T05:43:37Z
2019-06-19T03:46:24Z,42.805,6.029,13.2959,4.59969,2469.76,2019-6-19T05:46:40Z
2019-06-19T03:49:27Z,42.805,6.029,13.2958,4.59976,2469.75,2019-6-19T05:49:43Z
2019-06-19T03:52:30Z,42.805,6.029,13.2956,4.59966,2469.737,2019-6-19T05:52:46Z
2019-06-19T03:55:33Z,42.805,6.029,13.2957,4.59971,2469.783,2019-6-19T05:55:49Z
2019-06-19T03:58:36Z,42.805,6.029,13.2957,4.59971,2469.783,2019-6-19T05:58:52Z
2019-06-19T04:01:38Z,42.805,6.029,13.2957,4.59974,2469.773,2019-6-19T06:01:55Z
2019-06-19T04:04:41Z,42.805,6.029,13.2961,4.59976,2469.76,2019-6-19T06:04:58Z
2019-06-19T04:07:44Z,42.805,6.029,13.2957,4.59966,2469.773,2019-6-19T06:08:01Z
2019-06-19T04:10:47Z,42.805,6.029,13.2961,4.59970,2469.797,2019-6-19T06:11:04Z
2019-06-19T04:13:50Z,42.805,6.029,13.2962,4.59981,2469.75,2019-6-19T06:14:07Z
2019-06-19T04:16:53Z,42.805,6.029,13.2958,4.59986,2469.76,2019-6-19T06:17:10Z
2019-06-19T04:19:56Z,42.805,6.029,13.2958,4.59981,2469.783,2019-6-19T06:20:12Z
2019-06-19T04:22:59Z,42.805,6.029,13.2958,4.59968,2469.76,2019-6-19T06:23:15Z
2019-06-19T04:26:02Z,42.805,6.029,13.2958,4.59971,2469.723,2019-6-19T06:26:18Z
2019-06-19T04:29:05Z,42.805,6.029,13.2957,4.59963,2469.806,2019-6-19T06:29:21Z
2019-06-19T04:32:08Z,42.805,6.029,13.2956,4.59966,2469.783,2019-6-19T06:32:24Z
2019-06-19T04:35:11Z,42.805,6.029,13.2967,4.59988,2469.821,2019-6-19T06:35:27Z
2019-06-19T04:38:14Z,42.805,6.029,13.2960,4.59979,2469.783,2019-6-19T06:38:30Z
2019-06-19T04:41:17Z,42.805,6.029,13.2960,4.59980,2469.737,2019-6-19T06:41:33Z
2019-06-19T04:44:20Z,42.805,6.029,13.2957,4.59971,2469.783,2019-6-19T06:44:36Z
2019-06-19T04:47:23Z,42.805,6.029,13.2971,4.59981,2469.783,2019-6-19T06:47:39Z
2019-06-19T04:50:26Z,42.805,6.029,13.2956,4.59992,2469.797,2019-6-19T06:50:42Z
2019-06-19T04:53:29Z,42.805,6.029,13.2956,4.59976,2469.76,2019-6-19T06:53:45Z
2019-06-19T04:56:31Z,42.805,6.029,13.2956,4.59964,2469.783,2019-6-19T06:56:48Z
2019-06-19T04:59:34Z,42.805,6.029,13.2955,4.59968,2469.806,2019-6-19T06:59:51Z
2019-06-19T05:02:37Z,42.805,6.029,13.2977,4.59983,2469.806,2019-6-19T07:02:54Z
2019-06-19T05:05:40Z,42.805,6.029,13.2963,4.59985,2469.821,2019-6-19T07:05:57Z
2019-06-19T05:08:43Z,42.805,6.029,13.2957,4.59975,2469.806,2019-6-19T07:09:00Z
2019-06-19T05:11:46Z,42.805,6.029,13.2957,4.59974,2469.806,2019-6-19T07:12:03Z
2019-06-19T05:14:49Z,42.805,6.029,13.2956,4.59968,2469.806,2019-6-19T07:15:06Z
2019-06-19T05:17:52Z,42.805,6.029,13.2956,4.59963,2469.821,2019-6-19T07:18:09Z
2019-06-19T05:20:55Z,42.805,6.029,13.2953,4.59961,2469.806,2019-6-19T07:21:11Z
2019-06-19T05:23:58Z,42.805,6.029,13.2958,4.59963,2469.806,2019-6-19T07:24:14Z
2019-06-19T05:27:01Z,42.805,6.029,13.2956,4.59963,2469.797,2019-6-19T07:27:17Z
2019-06-19T05:30:04Z,42.805,6.029,13.2958,4.59959,2469.783,2019-6-19T07:30:20Z
2019-06-19T05:33:07Z,42.805,6.029,13.2953,4.59960,2469.806,2019-6-19T07:33:23Z
2019-06-19T05:36:10Z,42.805,6.029,13.2957,4.59959,2469.821,2019-6-19T07:36:26Z
2019-06-19T05:39:13Z,42.805,6.029,13.2959,4.59966,2469.806,2019-6-19T07:39:29Z
2019-06-19T05:42:16Z,42.805,6.029,13.2960,4.59966,2469.867,2019-6-19T07:42:32Z
2019-06-19T05:45:19Z,42.805,6.029,13.2958,4.59968,2469.83,2019-6-19T07:45:35Z
2019-06-19T05:48:22Z,42.805,6.029,13.2955,4.59970,2469.867,2019-6-19T07:48:38Z
2019-06-19T05:51:25Z,42.805,6.029,13.2957,4.59966,2469.806,2019-6-19T07:51:41Z
2019-06-19T05:54:28Z,42.805,6.029,13.2958,4.59961,2469.83,2019-6-19T07:54:44Z
2019-06-19T05:57:30Z,42.805,6.029,13.2955,4.59960,2469.821,2019-6-19T07:57:47Z
2019-06-19T06:00:33Z,42.805,6.029,13.2953,4.59958,2469.844,2019-6-19T08:00:50Z
2019-06-19T06:03:36Z,42.805,6.029,13.2956,4.59962,2469.83,2019-6-19T08:03:53Z
2019-06-19T06:06:39Z,42.805,6.029,13.2958,4.59960,2469.89,2019-6-19T08:06:56Z
2019-06-19T06:09:42Z,42.805,6.029,13.2957,4.59958,2469.83,2019-6-19T08:09:59Z
2019-06-19T06:12:45Z,42.805,6.029,13.2961,4.59958,2469.853,2019-6-19T08:13:02Z
2019-06-19T06:15:48Z,42.805,6.029,13.2957,4.59961,2469.867,2019-6-19T08:16:05Z
2019-06-19T06:18:51Z,42.805,6.029,13.2957,4.59963,2469.853,2019-6-19T08:19:07Z
2019-06-19T06:21:54Z,42.805,6.029,13.2955,4.59961,2469.844,2019-6-19T08:22:10Z
2019-06-19T06:24:57Z,42.805,6.029,13.2954,4.59960,2469.867,2019-6-19T08:25:13Z
2019-06-19T06:28:00Z,42.805,6.029,13.2961,4.59960,2469.83,2019-6-19T08:28:16Z
2019-06-19T06:31:03Z,42.805,6.029,13.2958,4.59959,2469.83,2019-6-19T08:31:19Z
2019-06-19T06:34:06Z,42.805,6.029,13.2957,4.59960,2469.853,2019-6-19T08:34:22Z
2019-06-19T06:37:09Z,42.805,6.029,13.2956,4.59958,2469.83,2019-6-19T08:37:25Z
2019-06-19T06:40:12Z,42.805,6.029,13.2953,4.59959,2469.853,2019-6-19T08:40:28Z
2019-06-19T06:43:15Z,42.805,6.029,13.2957,4.59960,2469.89,2019-6-19T08:43:31Z
2019-06-19T06:46:18Z,42.805,6.029,13.2958,4.59958,2469.867,2019-6-19T08:46:34Z
2019-06-19T06:49:21Z,42.805,6.029,13.2957,4.59960,2469.876,2019-6-19T08:49:37Z
2019-06-19T06:52:24Z,42.805,6.029,13.2957,4.59961,2469.9,2019-6-19T08:52:40Z
2019-06-19T06:55:27Z,42.805,6.029,13.2960,4.59962,2469.839,2019-6-19T08:55:43Z
2019-06-19T06:58:29Z,42.805,6.029,13.2958,4.59960,2469.853,2019-6-19T08:58:46Z
2019-06-19T07:01:32Z,42.805,6.029,13.2953,4.59958,2469.914,2019-6-19T09:01:49Z
2019-06-19T07:04:35Z,42.805,6.029,13.2959,4.59961,2469.89,2019-6-19T09:04:52Z
2019-06-19T07:07:38Z,42.805,6.029,13.2961,4.59963,2469.844,2019-6-19T09:07:55Z
2019-06-19T07:10:41Z,42.805,6.029,13.2956,4.59960,2469.853,2019-6-19T09:10:58Z
2019-06-19T07:13:44Z,42.805,6.029,13.2957,4.59961,2469.914,2019-6-19T09:14:01Z
2019-06-19T07:16:47Z,42.805,6.029,13.2953,4.59958,2469.89,2019-6-19T09:17:04Z
2019-06-19T07:19:50Z,42.805,6.029,13.2958,4.59962,2469.876,2019-6-19T09:20:06Z
2019-06-19T07:22:53Z,42.805,6.029,13.2957,4.59960,2469.876,2019-6-19T09:23:09Z
2019-06-19T07:25:56Z,42.805,6.029,13.2957,4.59961,2469.867,2019-6-19T09:26:12Z
2019-06-19T07:28:59Z,42.805,6.029,13.2959,4.59960,2469.923,2019-6-19T09:29:15Z
2019-06-19T07:32:02Z,42.805,6.029,13.2959,4.59958,2469.914,2019-6-19T09:32:18Z
2019-06-19T07:35:05Z,42.805,6.029,13.2957,4.59958,2469.9,2019-6-19T09:35:21Z
2019-06-19T07:38:08Z,42.805,6.029,13.2954,4.59960,2469.876,2019-6-19T09:38:24Z
2019-06-19T07:41:11Z,42.805,6.029,13.2957,4.59960,2469.876,2019-6-19T09:41:27Z
2019-06-19T07:44:14Z,42.805,6.029,13.2959,4.59958,2469.914,2019-6-19T09:44:30Z
2019-06-19T07:47:17Z,42.805,6.029,13.2955,4.59959,2469.876,2019-6-19T09:47:33Z
2019-06-19T07:50:20Z,42.805,6.029,13.2957,4.59958,2469.9,2019-6-19T09:50:36Z
2019-06-19T07:53:23Z,42.805,6.029,13.2957,4.59958,2469.853,2019-6-19T09:53:39Z
2019-06-19T07:56:25Z,42.805,6.029,13.2959,4.59958,2469.89,2019-6-19T09:56:42Z
2019-06-19T07:59:28Z,42.805,6.029,13.2957,4.59958,2469.853,2019-6-19T09:59:45Z
2019-06-19T08:02:31Z,42.805,6.029,13.2955,4.59958,2469.914,2019-6-19T10:02:48Z
2019-06-19T08:05:34Z,42.805,6.029,13.2952,4.59957,2469.914,2019-6-19T10:05:51Z
2019-06-19T08:08:37Z,42.805,6.029,13.2957,4.59957,2469.853,2019-6-19T10:08:54Z
2019-06-19T08:11:40Z,42.805,6.029,13.2958,4.59956,2469.876,2019-6-19T10:11:57Z
2019-06-19T08:14:43Z,42.805,6.029,13.2957,4.59960,2469.876,2019-6-19T10:15:00Z
2019-06-19T08:17:46Z,42.805,6.029,13.2958,4.59958,2469.89,2019-6-19T10:18:03Z
2019-06-19T08:20:49Z,42.805,6.029,13.2957,4.59958,2469.867,2019-6-19T10:21:05Z
2019-06-19T08:23:52Z,42.805,6.029,13.2956,4.59958,2469.853,2019-6-19T10:24:08Z
2019-06-19T08:26:55Z,42.805,6.029,13.2957,4.59957,2469.89,2019-6-19T10:27:11Z
2019-06-19T08:29:58Z,42.805,6.029,13.2958,4.59958,2469.853,2019-6-19T10:30:14Z
2019-06-19T08:33:01Z,42.805,6.029,13.2957,4.59956,2469.853,2019-6-19T10:33:17Z
2019-06-19T08:36:04Z,42.805,6.029,13.2959,4.59958,2469.853,2019-6-19T10:36:20Z
2019-06-19T08:39:07Z,42.805,6.029,13.2958,4.59957,2469.853,2019-6-19T10:39:23Z
2019-06-19T08:42:10Z,42.805,6.029,13.2953,4.59957,2469.853,2019-6-19T10:42:26Z
2019-06-19T08:45:13Z,42.805,6.029,13.2958,4.59957,2469.876,2019-6-19T10:45:29Z
2019-06-19T08:48:16Z,42.805,6.029,13.2952,4.59958,2469.9,2019-6-19T10:48:32Z
2019-06-19T08:51:19Z,42.805,6.029,13.2955,4.59958,2469.876,2019-6-19T10:51:35Z
2019-06-19T08:54:22Z,42.805,6.029,13.2957,4.59957,2469.867,2019-6-19T10:54:38Z
2019-06-19T08:57:25Z,42.805,6.029,13.2957,4.59957,2469.89,2019-6-19T10:57:41Z
2019-06-19T09:00:27Z,42.805,6.029,13.2954,4.59957,2469.876,2019-6-19T11:00:44Z
2019-06-19T09:03:30Z,42.805,6.029,13.2959,4.59957,2469.876,2019-6-19T11:03:47Z
2019-06-19T09:06:33Z,42.805,6.029,13.2957,4.59958,2469.876,2019-6-19T11:06:50Z
2019-06-19T09:09:36Z,42.805,6.029,13.2958,4.59957,2469.853,2019-6-19T11:09:53Z
2019-06-19T09:12:39Z,42.805,6.029,13.2957,4.59958,2469.853,2019-6-19T11:12:56Z
2019-06-19T09:15:42Z,42.805,6.029,13.2959,4.59958,2469.867,2019-6-19T11:15:59Z
2019-06-19T09:18:45Z,42.805,6.029,13.2956,4.59957,2469.853,2019-6-19T11:19:02Z
2019-06-19T09:21:48Z,42.805,6.029,13.2952,4.59959,2469.876,2019-6-19T11:22:05Z
2019-06-19T09:24:51Z,42.805,6.029,13.2958,4.59958,2469.867,2019-6-19T11:25:07Z
2019-06-19T09:27:54Z,42.805,6.029,13.2954,4.59960,2469.876,2019-6-19T11:28:10Z
2019-06-19T09:30:57Z,42.805,6.029,13.2955,4.59958,2469.853,2019-6-19T11:31:13Z
2019-06-19T09:34:00Z,42.805,6.029,13.2961,4.59957,2469.844,2019-6-19T11:34:16Z
2019-06-19T09:37:03Z,42.805,6.029,13.2956,4.59958,2469.844,2019-6-19T11:37:19Z
2019-06-19T09:40:06Z,42.805,6.029,13.2954,4.59959,2469.867,2019-6-19T11:40:22Z
2019-06-19T09:43:09Z,42.805,6.029,13.2959,4.59958,2469.83,2019-6-19T11:43:25Z
2019-06-19T09:46:12Z,42.805,6.029,13.2958,4.59957,2469.867,2019-6-19T11:46:28Z
2019-06-19T09:49:15Z,42.805,6.029,13.2957,4.59958,2469.844,2019-6-19T11:49:31Z
2019-06-19T09:52:18Z,42.805,6.029,13.2958,4.59958,2469.867,2019-6-19T11:52:34Z
2019-06-19T09:55:21Z,42.805,6.029,13.2957,4.59958,2469.806,2019-6-19T11:55:37Z
2019-06-19T09:58:24Z,42.805,6.029,13.2955,4.59958,2469.867,2019-6-19T11:58:40Z
2019-06-19T10:01:27Z,42.805,6.029,13.2957,4.59958,2469.844,2019-6-19T12:01:43Z
2019-06-19T10:04:30Z,42.805,6.029,13.2957,4.59958,2469.83,2019-6-19T12:04:46Z
2019-06-19T10:07:32Z,42.805,6.029,13.2957,4.59957,2469.83,2019-6-19T12:07:49Z
2019-06-19T10:10:35Z,42.805,6.029,13.2960,4.59957,2469.844,2019-6-19T12:10:52Z
2019-06-19T10:13:38Z,42.805,6.029,13.2958,4.59958,2469.844,2019-6-19T12:13:55Z
2019-06-19T10:16:41Z,42.805,6.029,13.2959,4.59958,2469.844,2019-6-19T12:16:58Z
2019-06-19T10:19:44Z,42.805,6.029,13.2954,4.59957,2469.844,2019-6-19T12:20:01Z
2019-06-19T10:22:47Z,42.805,6.029,13.2957,4.59958,2469.806,2019-6-19T12:23:04Z
2019-06-19T10:25:50Z,42.805,6.029,13.2955,4.59958,2469.83,2019-6-19T12:26:07Z
2019-06-19T10:28:53Z,42.805,6.029,13.2957,4.59958,2469.821,2019-6-19T12:29:10Z
2019-06-19T10:31:56Z,42.805,6.029,13.2953,4.59958,2469.783,2019-6-19T12:32:13Z
2019-06-19T10:34:59Z,42.805,6.029,13.2958,4.59957,2469.821,2019-6-19T12:35:15Z
2019-06-19T10:38:02Z,42.805,6.029,13.2958,4.59958,2469.797,2019-6-19T12:38:18Z
2019-06-19T10:41:05Z,42.805,6.029,13.2958,4.59960,2469.797,2019-6-19T12:41:21Z
2019-06-19T10:44:08Z,42.805,6.029,13.2956,4.59958,2469.806,2019-6-19T12:44:24Z
2019-06-19T10:47:11Z,42.805,6.029,13.2955,4.59958,2469.797,2019-6-19T12:47:27Z
2019-06-19T10:50:14Z,42.805,6.029,13.2956,4.59960,2469.806,2019-6-19T12:50:30Z
2019-06-19T10:53:17Z,42.805,6.029,13.2954,4.59958,2469.806,2019-6-19T12:53:33Z
2019-06-19T10:56:20Z,42.805,6.029,13.2957,4.59958,2469.821,2019-6-19T12:56:36Z
2019-06-19T10:59:23Z,42.805,6.029,13.2958,4.59958,2469.797,2019-6-19T12:59:39Z
2019-06-19T11:02:26Z,42.805,6.029,13.2958,4.59959,2469.844,2019-6-19T13:02:42Z
2019-06-19T11:05:29Z,42.805,6.029,13.2953,4.59958,2469.797,2019-6-19T13:05:45Z
2019-06-19T11:08:32Z,42.805,6.029,13.2957,4.59958,2469.783,2019-6-19T13:08:48Z
2019-06-19T11:11:34Z,42.805,6.029,13.2957,4.59958,2469.806,2019-6-19T13:11:51Z
2019-06-19T11:14:37Z,42.805,6.029,13.2957,4.59958,2469.821,2019-6-19T13:14:54Z
2019-06-19T11:17:40Z,42.805,6.029,13.2958,4.59958,2469.821,2019-6-19T13:17:57Z
2019-06-19T11:20:43Z,42.805,6.029,13.2957,4.59958,2469.76,2019-6-19T13:21:00Z
2019-06-19T11:23:46Z,42.805,6.029,13.2957,4.59960,2469.806,2019-6-19T13:24:03Z
2019-06-19T11:26:49Z,42.805,6.029,13.2961,4.59958,2469.806,2019-6-19T13:27:06Z
2019-06-19T11:29:52Z,42.805,6.029,13.2956,4.59958,2469.797,2019-6-19T13:30:09Z
2019-06-19T11:32:55Z,42.805,6.029,13.2960,4.59958,2469.783,2019-6-19T13:33:12Z
2019-06-19T11:35:58Z,42.805,6.029,13.2956,4.59960,2469.783,2019-6-19T13:36:15Z
2019-06-19T11:39:01Z,42.805,6.029,13.2956,4.59961,2469.797,2019-6-19T13:39:17Z
2019-06-19T11:42:04Z,42.805,6.029,13.2957,4.59958,2469.797,2019-6-19T13:42:20Z
2019-06-19T11:45:07Z,42.805,6.029,13.2958,4.59958,2469.783,2019-6-19T13:45:23Z
2019-06-19T11:48:10Z,42.805,6.029,13.2953,4.59958,2469.783,2019-6-19T13:48:26Z
2019-06-19T11:51:13Z,42.805,6.029,13.2961,4.59958,2469.797,2019-6-19T13:51:29Z
2019-06-19T11:54:16Z,42.805,6.029,13.2957,4.59958,2469.76,2019-6-19T13:54:32Z
2019-06-19T11:57:19Z,42.805,6.029,13.2958,4.59960,2469.76,2019-6-19T13:57:35Z
2019-06-19T12:00:22Z,42.805,6.029,13.2953,4.59958,2469.797,2019-6-19T14:00:38Z
2019-06-19T12:03:25Z,42.805,6.029,13.2956,4.59958,2469.76,2019-6-19T14:03:41Z
2019-06-19T12:06:28Z,42.805,6.029,13.2958,4.59958,2469.76,2019-6-19T14:06:44Z
2019-06-19T12:09:31Z,42.805,6.029,13.2954,4.59957,2469.76,2019-6-19T14:09:47Z
2019-06-19T12:12:34Z,42.805,6.029,13.2954,4.59960,2469.783,2019-6-19T14:12:50Z
2019-06-19T12:15:37Z,42.805,6.029,13.2957,4.59958,2469.76,2019-6-19T14:15:53Z
2019-06-19T12:18:39Z,42.805,6.029,13.2957,4.59957,2469.75,2019-6-19T14:18:56Z
2019-06-19T12:21:42Z,42.805,6.029,13.2956,4.59960,2469.737,2019-6-19T14:21:59Z
2019-06-19T12:24:45Z,42.805,6.029,13.2957,4.59958,2469.76,2019-6-19T14:25:02Z
2019-06-19T12:27:48Z,42.805,6.029,13.2956,4.59957,2469.773,2019-6-19T14:28:05Z
2019-06-19T12:30:51Z,42.805,6.029,13.2957,4.59958,2469.76,2019-6-19T14:31:08Z
2019-06-19T12:33:54Z,42.805,6.029,13.2955,4.59958,2469.737,2019-6-19T14:34:11Z
2019-06-19T12:36:57Z,42.805,6.029,13.2959,4.59961,2469.713,2019-6-19T14:37:14Z
2019-06-19T12:40:00Z,42.805,6.029,13.2956,4.59960,2469.76,2019-6-19T14:40:17Z
2019-06-19T12:43:03Z,42.805,6.029,13.2959,4.59960,2469.704,2019-6-19T14:43:19Z
2019-06-19T12:46:06Z,42.805,6.029,13.2957,4.59961,2469.713,2019-6-19T14:46:22Z
2019-06-19T12:49:09Z,42.805,6.029,13.2959,4.59957,2469.75,2019-6-19T14:49:25Z
2019-06-19T12:52:12Z,42.805,6.029,13.2957,4.59960,2469.76,2019-6-19T14:52:28Z
2019-06-19T12:55:15Z,42.805,6.029,13.2952,4.59958,2469.737,2019-6-19T14:55:31Z
2019-06-19T12:58:18Z,42.805,6.029,13.2961,4.59960,2469.727,2019-6-19T14:58:34Z
2019-06-19T13:01:21Z,42.805,6.029,13.2957,4.59961,2469.75,2019-6-19T15:01:37Z
2019-06-19T13:04:24Z,42.805,6.029,13.2958,4.59958,2469.75,2019-6-19T15:04:40Z
2019-06-19T13:07:27Z,42.805,6.029,13.2957,4.59966,2469.75,2019-6-19T15:07:43Z
2019-06-19T13:10:30Z,42.805,6.029,13.2957,4.59961,2469.75,2019-6-19T15:10:46Z
2019-06-19T13:13:33Z,42.805,6.029,13.2957,4.59960,2469.75,2019-6-19T15:13:49Z
2019-06-19T13:16:36Z,42.805,6.029,13.2958,4.59960,2469.737,2019-6-19T15:16:52Z
2019-06-19T13:19:39Z,42.805,6.029,13.2957,4.59963,2469.713,2019-6-19T15:19:55Z
2019-06-19T13:22:42Z,42.805,6.029,13.2958,4.59960,2469.727,2019-6-19T15:22:58Z
2019-06-19T13:25:44Z,42.805,6.029,13.2957,4.59959,2469.704,2019-6-19T15:26:01Z
2019-06-19T13:28:47Z,42.805,6.029,13.2953,4.59960,2469.713,2019-6-19T15:29:04Z
2019-06-19T13:31:50Z,42.805,6.029,13.2957,4.59961,2469.713,2019-6-19T15:32:07Z
2019-06-19T13:34:53Z,42.805,6.029,13.2957,4.59961,2469.713,2019-6-19T15:35:10Z
2019-06-19T13:37:56Z,42.805,6.029,13.2955,4.59964,2469.713,2019-6-19T15:38:13Z
2019-06-19T13:40:59Z,42.805,6.029,13.2957,4.59962,2469.75,2019-6-19T15:41:16Z
2019-06-19T13:44:02Z,42.805,6.029,13.2954,4.59956,2469.704,2019-6-19T15:44:19Z
2019-06-19T13:47:05Z,42.805,6.029,13.2951,4.59958,2469.69,2019-6-19T15:47:22Z
2019-06-19T13:50:08Z,42.805,6.029,13.2957,4.59963,2469.69,2019-6-19T15:50:24Z
2019-06-19T13:53:11Z,42.805,6.029,13.2956,4.59966,2469.727,2019-6-19T15:53:27Z
2019-06-19T13:56:14Z,42.805,6.029,13.2956,4.59962,2469.727,2019-6-19T15:56:30Z
2019-06-19T13:59:17Z,42.805,6.029,13.2953,4.59961,2469.667,2019-6-19T15:59:33Z
2019-06-19T14:02:20Z,42.805,6.029,13.2958,4.59956,2469.699,2019-6-19T16:02:36Z
2019-06-19T14:05:23Z,42.805,6.029,13.2961,4.59964,2469.69,2019-6-19T16:05:39Z
2019-06-19T14:08:26Z,42.805,6.029,13.2958,4.59961,2469.727,2019-6-19T16:08:42Z
2019-06-19T14:11:29Z,42.805,6.029,13.2954,4.59958,2469.727,2019-6-19T16:11:45Z
2019-06-19T14:14:32Z,42.805,6.029,13.2958,4.59960,2469.713,2019-6-19T16:14:48Z
2019-06-19T14:17:35Z,42.805,6.029,13.2958,4.59966,2469.713,2019-6-19T16:17:51Z
2019-06-19T14:20:38Z,42.805,6.029,13.2957,4.59967,2469.727,2019-6-19T16:20:54Z
2019-06-19T14:23:41Z,42.805,6.029,13.2958,4.59963,2469.713,2019-6-19T16:23:57Z
2019-06-19T14:26:44Z,42.805,6.029,13.2954,4.59964,2469.727,2019-6-19T16:27:00Z
2019-06-19T14:29:46Z,42.805,6.029,13.2956,4.59966,2469.727,2019-6-19T16:30:03Z
2019-06-19T14:32:49Z,42.805,6.029,13.2953,4.59961,2469.75,2019-6-19T16:33:06Z
2019-06-19T14:35:52Z,42.805,6.029,13.2958,4.59960,2469.704,2019-6-19T16:36:09Z
2019-06-19T14:38:55Z,42.805,6.029,13.2958,4.59964,2469.713,2019-6-19T16:39:12Z
2019-06-19T14:41:58Z,42.805,6.029,13.2954,4.59963,2469.69,2019-6-19T16:42:15Z
2019-06-19T14:45:01Z,42.805,6.029,13.2958,4.59966,2469.727,2019-6-19T16:45:18Z
2019-06-19T14:48:04Z,42.805,6.029,13.2953,4.59963,2469.713,2019-6-19T16:48:21Z
2019-06-19T14:51:07Z,42.805,6.029,13.2957,4.59969,2469.713,2019-6-19T16:51:24Z
2019-06-19T14:54:10Z,42.805,6.029,13.2957,4.59964,2469.69,2019-6-19T16:54:27Z
2019-06-19T14:57:13Z,42.805,6.029,13.2956,4.59962,2469.69,2019-6-19T16:57:29Z
2019-06-19T15:00:16Z,42.805,6.029,13.2958,4.59965,2469.713,2019-6-19T17:00:32Z
2019-06-19T15:03:19Z,42.805,6.029,13.2954,4.59976,2469.713,2019-6-19T17:03:35Z
2019-06-19T15:06:22Z,42.805,6.029,13.2955,4.59968,2469.69,2019-6-19T17:06:38Z
2019-06-19T15:09:25Z,42.805,6.029,13.2960,4.59968,2469.737,2019-6-19T17:09:41Z